OZ1IEP-5 Weather Reports


Display with metric or nautical units.
time (UTC)temp
F
wind
direction
speed
MPH
gust
MPH
rain 1hr
in
rain 24hr
in
rain mn
in
humidity
%
barometer
mb
20260509135006 64 166 6.0 14.0 0.00 0.00 0.00 35 1019.8
20260509134005 64 144 3.0 17.0 0.00 0.00 0.00 34 1019.9
20260509133008 64 139 5.0 13.0 0.00 0.00 0.00 34 1020.0
20260509132006 64 124 4.0 13.0 0.00 0.00 0.00 33 1020.2
20260509131006 64 73 2.0 14.0 0.00 0.00 0.00 35 1020.3
20260509130008 64 161 2.0 14.0 0.00 0.00 0.00 34 1020.4
20260509125006 64 175 7.0 12.0 0.00 0.00 0.00 36 1020.4
20260509124006 64 142 5.0 12.0 0.00 0.00 0.00 36 1020.4
20260509123009 63 187 2.0 7.0 0.00 0.00 0.00 36 1020.5
20260509122006 63 184 6.0 14.0 0.00 0.00 0.00 36 1020.7
20260509121005 63 207 1.0 7.0 0.00 0.00 0.00 38 1020.8
20260509120008 64 337 2.0 7.0 0.00 0.00 0.00 36 1020.9
20260509115006 63 151 3.0 10.0 0.00 0.00 0.00 35 1021.0
20260509114006 63 126 2.0 7.0 0.00 0.00 0.00 34 1021.0
20260509113009 62 154 5.0 8.0 0.00 0.00 0.00 38 1021.0
20260509112006 62 92 1.0 5.0 0.00 0.00 0.00 35 1021.1
20260509111006 62 170 0.0 8.0 0.00 0.00 0.00 35 1021.2
20260509110008 61 110 1.0 5.0 0.00 0.00 0.00 35 1021.3
20260509105006 60 140 2.0 5.0 0.00 0.00 0.00 36 1021.4
20260509104005 61 54 2.0 12.0 0.00 0.00 0.00 34 1021.4
20260509103009 60 82 0.0 5.0 0.00 0.00 0.00 34 1021.5
20260509102006 61 71 0.0 5.0 0.00 0.00 0.00 31 1021.5
20260509101006 61 153 1.0 10.0 0.00 0.00 0.00 35 1021.5
20260509100009 61 156 2.0 6.0 0.00 0.00 0.00 34 1021.5
20260509095006 60 155 1.0 6.0 0.00 0.00 0.00 35 1021.5
20260509094007 60 171 1.0 7.0 0.00 0.00 0.00 33 1021.4
20260509093008 59 141 1.0 10.0 0.00 0.00 0.00 31 1021.5
20260509092006 59 120 1.0 6.0 0.00 0.00 0.00 32 1021.5
20260509091005 58 144 4.0 10.0 0.00 0.00 0.00 32 1021.5
20260509090008 58 139 4.0 10.0 0.00 0.00 0.00 32 1021.6
20260509085006 57 108 0.0 3.0 0.00 0.00 0.00 33 1021.6
20260509084006 56 92 1.0 6.0 0.00 0.00 0.00 35 1021.8
20260509083009 55 90 2.0 12.0 0.00 0.00 0.00 36 1021.7
20260509082007 54 112 5.0 13.0 0.00 0.00 0.00 37 1021.9
20260509081006 54 62 1.0 3.0 0.00 0.00 0.00 40 1021.9
20260509080009 53 98 0.0 7.0 0.00 0.00 0.00 42 1021.9
20260509075006 53 131 2.0 9.0 0.00 0.00 0.00 44 1021.9
20260509074007 52 83 1.0 7.0 0.00 0.00 0.00 45 1022.0
20260509073011 51 121 1.0 7.0 0.00 0.00 0.00 46 1022.0
20260509072006 51 106 2.0 7.0 0.00 0.00 0.00 48 1022.0
20260509071007 50 116 3.0 9.0 0.00 0.00 0.00 49 1022.0
20260509070010 50 115 3.0 7.0 0.00 0.00 0.00 51 1022.1
20260509065007 49 75 0.0 3.0 0.00 0.00 0.00 55 1022.1
20260509064006 49 39 0.0 3.0 0.00 0.00 0.00 55 1022.1
20260509063009 48 124 1.0 5.0 0.00 0.00 0.00 57 1022.1
20260509062008 47 60 0.0 5.0 0.00 0.00 0.00 60 1022.0
20260509061006 47 62 0.0 3.0 0.00 0.00 0.00 63 1022.0
20260509060008 46 62 0.0 5.0 0.00 0.00 0.00 63 1022.1
20260509055005 45 68 0.0 2.0 0.00 0.00 0.00 67 1022.2
20260509054006 44 124 0.0 2.0 0.00 0.00 0.00 71 1022.1
20260509053008 44 118 1.0 3.0 0.00 0.00 0.00 74 1022.2
20260509052006 43 97 1.0 3.0 0.00 0.00 0.00 75 1022.2
20260509051006 43 88 0.0 0.0 0.00 0.00 0.00 76 1022.2
20260509050008 42 87 0.0 1.0 0.00 0.00 0.00 77 1022.2
20260509045006 42 95 0.0 1.0 0.00 0.00 0.00 79 1022.2
20260509044005 40 68 0.0 0.0 0.00 0.00 0.00 81 1022.2
20260509043009 39 68 0.0 0.0 0.00 0.00 0.00 81 1022.1
20260509042006 38 68 0.0 1.0 0.00 0.00 0.00 80 1022.2
20260509041006 38 68 0.0 0.0 0.00 0.00 0.00 80 1022.1
20260509040008 38 68 0.0 1.0 0.00 0.00 0.00 79 1022.1
20260509035006 37 73 0.0 1.0 0.00 0.00 0.00 79 1022.2
20260509034006 37 72 0.0 0.0 0.00 0.00 0.00 79 1022.2
20260509033008 37 78 0.0 0.0 0.00 0.00 0.00 78 1022.3
20260509032005 37 79 0.0 1.0 0.00 0.00 0.00 76 1022.4
20260509031006 37 79 0.0 1.0 0.00 0.00 0.00 75 1022.5
20260509030008 37 79 0.0 1.0 0.00 0.00 0.00 75 1022.4
20260509025005 37 81 0.0 0.0 0.00 0.00 0.00 75 1022.5
20260509024006 37 81 0.0 0.0 0.00 0.00 0.00 75 1022.4
20260509023008 38 81 0.0 1.0 0.00 0.00 0.00 75 1022.4
20260509022005 38 91 0.0 0.0 0.00 0.00 0.00 74 1022.4
20260509021006 38 91 0.0 0.0 0.00 0.00 0.00 74 1022.5
20260509020008 38 91 0.0 1.0 0.00 0.00 0.00 73 1022.5
20260509015006 38 101 0.0 0.0 0.00 0.00 0.00 73 1022.5
20260509014006 38 101 0.0 0.0 0.00 0.00 0.00 72 1022.5
20260509013008 38 101 0.0 0.0 0.00 0.00 0.00 72 1022.7
20260509012005 39 101 0.0 0.0 0.00 0.00 0.00 71 1022.7
20260509011006 39 102 0.0 0.0 0.00 0.00 0.00 70 1022.9
20260509010008 39 102 0.0 0.0 0.00 0.00 0.00 70 1022.9
20260509005006 40 102 0.0 0.0 0.00 0.00 0.00 68 1022.9
20260509004006 40 103 0.0 1.0 0.00 0.00 0.00 67 1023.0
20260509003008 40 105 0.0 0.0 0.00 0.00 0.00 65 1023.0
20260509002005 41 105 0.0 0.0 0.00 0.00 0.00 65 1023.0
20260509001006 41 105 0.0 0.0 0.00 0.00 0.00 65 1023.0
20260509000008 42 105 0.0 0.0 0.00 0.00 0.00 63 1023.1
20260508235005 42 105 0.0 1.0 0.00 0.00 0.00 63 1023.1
20260508234005 43 105 0.0 1.0 0.00 0.00 0.00 61 1023.3
20260508233008 43 105 0.0 2.0 0.00 0.00 0.00 60 1023.4
20260508232005 43 106 1.0 5.0 0.00 0.00 0.00 59 1023.4
20260508231005 44 112 2.0 10.0 0.00 0.00 0.00 59 1023.4
20260508230007 44 119 4.0 10.0 0.00 0.00 0.00 60 1023.3
20260508225006 44 120 5.0 12.0 0.00 0.00 0.00 60 1023.4
20260508224006 43 111 2.0 8.0 0.00 0.00 0.00 63 1023.2
20260508223008 43 116 3.0 9.0 0.00 0.00 0.00 67 1023.2
20260508222006 43 115 2.0 5.0 0.00 0.00 0.00 72 1023.1
20260508221005 43 105 1.0 3.0 0.00 0.00 0.00 74 1023.1
20260508220008 43 105 0.0 3.0 0.00 0.00 0.00 75 1023.1
20260508215006 43 129 0.0 0.0 0.00 0.00 0.00 74 1023.1
20260508214006 43 129 0.0 0.0 0.00 0.00 0.00 73 1023.1
20260508213008 43 129 0.0 0.0 0.00 0.00 0.00 70 1023.0
20260508212006 43 129 0.0 0.0 0.00 0.00 0.00 68 1023.0
20260508211006 44 129 0.0 0.0 0.00 0.00 0.00 67 1022.9
20260508210008 44 129 0.0 0.0 0.00 0.00 0.00 67 1022.9
20260508205006 45 129 0.0 0.0 0.00 0.00 0.00 66 1022.9
20260508204006 45 129 0.0 0.0 0.00 0.00 0.00 63 1022.8
20260508203008 46 129 0.0 0.0 0.00 0.00 0.00 62 1022.6
20260508202006 46 129 0.0 0.0 0.00 0.00 0.00 60 1022.5
20260508201005 47 129 0.0 0.0 0.00 0.00 0.00 58 1022.5
20260508200009 47 129 0.0 0.0 0.00 0.00 0.00 57 1022.5
20260508195005 48 129 0.0 0.0 0.00 0.00 0.00 56 1022.5
20260508194005 48 129 0.0 1.0 0.00 0.00 0.00 55 1022.5
20260508193007 49 129 1.0 2.0 0.00 0.00 0.00 53 1022.1
20260508192005 50 129 0.0 2.0 0.00 0.00 0.00 51 1022.0
20260508191005 50 129 0.0 3.0 0.00 0.00 0.00 50 1022.0
20260508190016 51 129 1.0 6.0 0.00 0.00 0.00 49 1022.0
20260508185005 52 138 2.0 6.0 0.00 0.00 0.00 51 1022.0
20260508184006 53 132 2.0 5.0 0.00 0.00 0.00 52 1021.7
20260508183007 53 131 2.0 6.0 0.00 0.00 0.00 51 1021.6
20260508182005 54 149 3.0 9.0 0.00 0.00 0.00 50 1021.5
20260508181005 54 144 5.0 9.0 0.00 0.00 0.00 50 1021.5
20260508180007 55 154 4.0 10.0 0.00 0.00 0.00 49 1021.5
20260508175005 55 152 5.0 10.0 0.00 0.00 0.00 50 1021.5
20260508174005 55 160 5.0 12.0 0.00 0.00 0.00 49 1021.5
20260508173008 55 148 6.0 12.0 0.00 0.00 0.00 48 1021.4
20260508172006 55 163 4.0 13.0 0.00 0.00 0.00 47 1021.4
20260508171005 55 151 2.0 12.0 0.00 0.00 0.00 46 1021.3
20260508170007 55 154 6.0 12.0 0.00 0.00 0.00 44 1021.2
20260508165005 56 150 3.0 12.0 0.00 0.00 0.00 43 1021.2
20260508164005 56 152 3.0 12.0 0.00 0.00 0.00 42 1021.3
20260508163008 56 160 3.0 12.0 0.00 0.00 0.00 41 1021.2
20260508162005 57 165 6.0 12.0 0.00 0.00 0.00 39 1021.2
20260508161005 57 150 6.0 14.0 0.00 0.00 0.00 38 1021.3
20260508160007 58 150 6.0 12.0 0.00 0.00 0.00 37 1021.2
20260508155005 58 148 6.0 12.0 0.00 0.00 0.00 37 1021.1
20260508154005 58 140 7.0 16.0 0.00 0.00 0.00 37 1021.0
20260508153008 59 143 8.0 17.0 0.00 0.00 0.00 39 1021.1
20260508152006 59 146 6.0 16.0 0.00 0.00 0.00 37 1021.2
20260508151005 59 130 6.0 15.0 0.00 0.00 0.00 38 1021.3
20260508150009 60 146 7.0 17.0 0.00 0.00 0.00 39 1021.3
20260508145005 60 140 10.0 17.0 0.00 0.00 0.00 38 1021.4
20260508144005 61 142 7.0 17.0 0.00 0.00 0.00 37 1021.5
20260508143009 61 149 7.0 15.0 0.00 0.00 0.00 39 1021.5
20260508142006 61 120 5.0 18.0 0.00 0.00 0.00 36 1021.5
20260508141006 61 136 6.0 16.0 0.00 0.00 0.00 37 1021.5
20260508140008 61 121 2.0 13.0 0.00 0.00 0.00 36 1021.5